AznDarkproduction

AznDarkproduction

Views:
85,788,951
Subscribers:
324,000
Videos:
2,443
Duration:
43:23:33:06
France
France
Created on ● Channel Link: https://www.youtube.com/channel/UC4YYvEOi8fDecEJFGJfBH1A





All Videos by AznDarkproduction



PublishedVideo TitleDurationViewsCategoryGame
2020-06-29FTB ACADEMY #41 : ON COMMENCE ASTRAL !33:30349
2020-06-27SCRAP MECHANIC SURVIE #10 : WIPEOUT ET CAISSES DE LÉGUMES !24:371,850Scrap Mechanic
2020-06-26MODUCTION S8 #11 : ATUM CONTRE-ATTAQUE !27:114,028
2020-06-24[COOP]-MINECRAFT DUNGEON #4 : SUITE DU MODE AVENTURE !3:03:531,122Minecraft Dungeons
2020-06-23MES CHERS VOISINS 2 !51:445,998
2020-06-22FTB ACADEMY #40 : STUFF FULL AWAKENED !24:532,284
2020-06-21NFTH : DES NOUVELLES DE MOI ET DE MES PROJETS !27:282,727
2020-06-20SCRAP MECHANIC SURVIE #9 : NOTRE NOUVELLE BASE !21:212,503Scrap Mechanic
2020-06-19MODUCTION S8 #10 : LA VOYANTE CORROMPUE !31:284,572
2020-06-18FTB ACADEMY #39 : TWILIGHT/FARM/AWAKENED TIERS21:032,988
2020-06-17SCRAP MECHANIC SURVIE #8 : LE TRAIN DE LA HYPE !22:342,920Scrap Mechanic
2020-06-16[FR]-PRÉSENTATION DE MOD : CREATE PARTIE 2-[1.14.4]51:293,594
2020-06-14[FR]-PRÉSENTATION DE MOD : CREATE PARTIE 1-[1.14.4]54:527,041
2020-06-12[COOP]-MINECRAFT DUNGEON #3 : ON PART EN MODE AVENTURE !3:00:141,412Minecraft Dungeons
2020-06-11MODUCTION S8 #9 : LA VOYANTE A UNE MISSION POUR NOUS !21:375,332
2020-06-08FTB ACADEMY #38 : FARM A ÉMERAUDES !21:502,592
2020-06-07SCRAP MECHANIC SURVIE #7 : COOK BOT et UPGRADES !21:282,929Scrap Mechanic
2020-06-06MODUCTION S8 #8 : KIDNAPPING ET BLOOD MAGIC !26:565,362
2020-06-05FTB ACADEMY #37 : LASER DRILL ET OBJECTIFS !21:221,809
2020-06-04SCRAP MECHANIC SURVIE #6 : PREMIÈRE EXPLORATION !23:192,568Scrap Mechanic
2020-06-03[COOP]-MINECRAFT DUNGEON #2 : FIN DU MODE NORMAL !4:49:172,266Minecraft Dungeons
2020-06-01MODUCTION S8 #7 : PERDU DANS LE DÉSERT !29:096,538
2020-05-29FTB ACADEMY #36 : CRYO ET FOU RIRE INCONTRÔLABLE !32:052,899
2020-05-27[COOP]-MINECRAFT DUNGEON #1 : EN AVANT !4:47:335,339Minecraft Dungeons
2020-05-26MODUCTION S8 #6 : GRAND PÈRE PAZZO !21:336,280
2020-05-25SCRAP MECHANIC SURVIE #5 : LA REMORQUE !20:593,005Scrap Mechanic
2020-05-24MODUCTION S8 #5 : LE CYCLOPE !25:227,241
2020-05-23FTB ACADEMY #35 : FARM A WITHER AUTOMATIQUE !28:012,218
2020-05-22SCRAP MECHANIC SURVIE #4 : POMPE A EAU ET WATER CONTAINER !20:452,884Scrap Mechanic
2020-05-21MODUCTION S8 #4 : DARKSHADDOW IS BACK !27:328,094
2020-05-20FTB ACADEMY #34 : AWAKENED DRACONIUM !21:422,356
2020-05-19SCRAP MECHANIC SURVIE #3 : REFINE BOT ET RESSOURCE COLLECTOR !22:103,093Scrap Mechanic
2020-05-17MODUCTION S8 #3 : SIRÈNES ET MONDE MINAGE !22:317,663
2020-05-16FTB ACADEMY #33 : VERTICAL MINER ET STOCKAGE DRACONIC !22:062,247
2020-05-14SCRAP MECHANIC SURVIE #2 : LE TRICYCLE !23:373,289Scrap Mechanic
2020-05-13MODUCTION S8 #2 : LE VRAI DÉPART !25:219,288
2020-05-12FTB ACADEMY #32 : FARM A PINK SLIME INGOT !26:322,220
2020-05-11SCRAP MECHANIC SURVIE #1 : LE GARAGE !21:396,391Scrap Mechanic
2020-05-10MODUCTION S8 #1 : LE FAUX DÉPART !22:5011,163
2020-05-09(COOP)- VINTAGE STORY #FIN : LA VOYANTE II33:582,537
2020-05-08(COOP)- VINTAGE STORY #14 : METEORIC IRON ET PAZZO LA VOYANTE22:292,293
2020-05-06(COOP)- VINTAGE STORY #13 : FER ET MOULIN A VENT !28:152,223
2020-05-03FTB ACADEMY #31 : ON DÉMÉNAGE DANS LES CIEUX !21:412,944
2020-05-01MODUCTION S7 #FIN : ON FAIT TOUT SAUTER !23:044,250
2020-04-30(COOP)- VINTAGE STORY #12 : PROSPECTING PICKAXE !24:112,124
2020-04-29MODUCTION S7#63 : NUCLEAR CRAFT : FUSION REACTOR 24x24x2419:513,379
2020-04-27MODUCTION S7#62 : NUCLEAR CRAFT : FUSION CORE29:434,003
2020-04-26MODUCTION S7#61 : NUCLEAR CRAFT : LES FUELS22:063,620
2020-04-25MODUCTION S7#60 : NUCLEAR CRAFT : RÉACTEUR À FISSION 24x24x2424:283,835
2020-04-23(COOP)- VINTAGE STORY #11 : LES LOCUSTS !23:112,321
2020-04-22FTB ACADEMY #30 : ON ROULE SUR GAÏA I ET II21:552,466
2020-04-19MODUCTION S7#59 : SPEED FARMING !22:384,248
2020-04-18(COOP)- VINTAGE STORY #10 : ON FAIT DU VERRE !24:442,321
2020-04-16FTB ACADEMY #29 : PORTAIL ALFHEIM !25:022,637
2020-04-15MODUCTION S7#58 : PROJECT-E RAPIDOS !22:344,030
2020-04-14(COOP)- VINTAGE STORY #9 : TEMPÊTE TEMPORELLE ET BLOOMERY28:192,505
2020-04-13FTB ACADEMY #28 : AUTOMATISATION DES ENDOFLAME !23:512,327
2020-04-11MODUCTION S7#57 : TOUS LES PRESTIGES !27:394,285
2020-04-11(COOP)- VINTAGE STORY #8 : CUIR ET LIMESTONE !24:282,186
2020-04-09FTB ACADEMY #27 : ON COMMENCE BOTANIA !20:132,320
2020-04-08LE JOUR OU J'AI PERDU MES CHEVEUX !29:525,312
2020-04-08MODUCTION S7#56 : FLUX POINT ET 1 MILLIARD RF/T22:183,930
2020-04-07(COOP)- VINTAGE STORY #7 : EXPLORATION ET CUISINE !23:212,583
2020-04-06MES CHERS VOISINS !39:265,866
2020-04-05MODUCTION S7#55 : RÉACTEUR A TROU NOIR : SETUP A 2 ANNEAUX24:124,570
2020-04-04(COOP)- VINTAGE STORY #6 : NOUVELLE MAISON !22:092,366
2020-04-03JE CRÉÉ LES DIMENSIONS DES VIEWERS !19:263,297
2020-04-02FTB ACADEMY #26 : FARM A BLIZZ POWDER !21:012,305
2020-04-01MODUCTION S7#54 : JE KIDNAPPE UN TROU NOIR !30:144,512
2020-03-31(COOP)- VINTAGE STORY #5 : LE FORGEAGE !23:492,603
2020-03-30FTB ACADEMY #25 : FARM A BLAZE !23:012,485
2020-03-29MODUCTION S7#53 : LE REACTEUR MEKANISM !32:524,262
2020-03-28(COOP)- VINTAGE STORY #4 : LA CHASSE !25:382,833
2020-03-27FTB ACADEMY #24 : ROAD TO ENDERIUM !23:152,238
2020-03-26MODUCTION S7#52 : LE PLASTIQUE DE MEKANISM !26:083,591
2020-03-24(COOP)- VINTAGE STORY #3 : PIOCHE EN CUIVRE !20:482,785
2020-03-22FTB ACADEMY #23 : WYVERN ARMOR !25:322,554
2020-03-21MODUCTION S7#51 : PARABOX V2 !21:523,728
2020-03-18(COOP)- VINTAGE STORY #2 : CHARBON ET ARGILE !22:593,439
2020-03-17FTB ACADEMY #22 : MOB GRINDING UTILS !21:182,186
2020-03-15MODUCTION S7#50 : JE DEVIENS UN ANDROÏDE !22:444,410
2020-03-14(COOP)- VINTAGE STORY #1 : L'AVENTURE COMMENCE !21:584,903
2020-03-13FTB ACADEMY #21 : WITHER QUEST !24:471,995
2020-03-12MODUCTION S7#49 : POMPE IT UP !22:053,624
2020-03-11[FR]-VINTAGE STORY PARTIE 2/2 : LE GUIDE POUR BIEN DÉBUTER !23:542,223Guide
2020-03-10FTB ACADEMY #20 : FARM A RUBBER !21:532,104
2020-03-09MODUCTION S7#48 : LES TOURS DE BRINE !21:583,614
2020-03-08NOITA : C'EST QUOI CE JEU ?22:412,268Noita
2020-03-07[FR]-VINTAGE STORY PARTIE 1/2 : LE GUIDE POUR BIEN DÉBUTER !22:454,574Guide
2020-03-06FTB ACADEMY #19 : ON STABILISE UN SPAWNER !23:012,283
2020-03-05MODUCTION S7#47 : PRODUCTION DE CANNE A SUCRE DES ENFERS !22:033,318
2020-03-02FTB ACADEMY #18 : L'ARC GOLDÉ !22:542,209
2020-03-01MODUCTION S7#46 : LA MATRICE A INDUCTION !27:554,034
2020-02-29FTB ACADEMY #17 : ENDER ET ENCHANTEMENTS !23:102,046
2020-02-28RAFT (COOP) #15 : RUCHE/CHÈVRE ET AMPOULE !26:592,173
2020-02-27MODUCTION S7#45 : QUANTUM COMPRESSOR !21:113,585
2020-02-26FTB ACADEMY #16 : HEAT COLLECTOR !20:392,179
2020-02-24RAFT (COOP) #14 : ON ATTRAPE DES ABEILLES !21:323,160Raft
2020-02-23SPECIAL 300 SUBS ft FURIOUS !17:034,343
2020-02-22MODUCTION S7#44 : LA PARABOX !25:534,098